Date,TemperatureHighF,TemperatureAvgF,TemperatureLowF,DewpointHighF,DewpointAvgF,DewpointLowF,HumidityHigh,HumidityAvg,HumidityLow,PressureMaxIn,PressureMinIn,WindSpeedMaxMPH,WindSpeedAvgMPH,GustSpeedMaxMPH,PrecipitationSumIn
2013-1-1,33,22,6,28,14,1,83,72,56,30.02,29.80,14,2,21,0.00
2013-1-2,26,19,7,20,14,3,87,78,65,30.19,29.96,11,2,14,0.00
2013-1-3,28,21,12,25,17,8,90,82,71,30.18,29.94,11,2,19,0.00
2013-1-4,32,30,26,24,22,18,80,72,67,29.97,29.83,19,8,30,0.00
2013-1-5,36,32,29,26,24,21,75,71,63,30.25,29.98,12,2,18,0.01
2013-1-6,37,34,30,32,29,22,91,81,73,30.03,29.84,11,2,16,0.11
2013-1-7,35,28,24,32,22,19,88,77,65,30.36,30.03,8,1,11,0.00
2013-1-8,40,30,24,26,22,17,88,73,59,30.29,30.12,10,1,11,0.02
2013-1-9,48,36,25,35,27,20,86,71,56,30.26,29.91,22,4,30,0.00
2013-1-10,44,38,32,28,27,25,83,66,50,30.55,30.27,15,1,15,0.00
2013-1-11,44,40,34,39,33,25,90,76,53,30.39,29.84,6,2,14,0.13
2013-1-12,57,48,42,49,44,39,93,86,74,29.94,29.89,5,1,12,0.00
2013-1-13,69,56,48,56,50,46,92,83,63,29.91,29.68,19,2,19,0.00
2013-1-14,53,36,28,51,28,18,92,74,64,30.35,29.67,16,4,27,0.02
2013-1-15,34,29,25,22,19,18,76,68,52,30.36,30.15,5,1,8,0.00
2013-1-16,39,32,28,29,24,21,77,72,62,30.14,29.73,16,2,19,0.00
2013-1-17,36,25,16,29,17,10,85,72,61,30.16,29.79,11,2,16,0.00
2013-1-18,29,20,11,16,11,6,87,69,48,30.40,29.99,11,2,14,0.02
2013-1-19,48,40,28,30,23,16,63,51,39,29.99,29.54,17,4,26,0.01
2013-1-20,48,31,17,34,18,7,87,62,41,30.04,29.39,25,8,31,0.02
2013-1-21,21,18,13,14,8,1,77,65,54,30.03,29.84,12,2,14,0.00
2013-1-22,13,10,7,1,-3,-7,73,56,43,30.16,29.86,17,6,21,0.00
2013-1-23,14,10,5,6,1,-5,84,68,50,30.21,30.07,7,1,11,0.00
2013-1-24,13,11,7,8,4,0,84,75,61,30.50,30.05,9,1,13,0.00
2013-1-25,16,12,8,10,5,1,82,74,63,30.48,30.07,5,0,9,0.00
2013-1-26,24,13,0,14,6,-5,86,76,53,30.36,30.07,4,0,6,0.01
2013-1-27,28,21,10,16,13,6,88,73,55,30.54,30.34,5,0,9,0.01
2013-1-28,43,33,23,42,29,16,96,87,68,30.32,29.80,7,1,12,0.22
2013-1-29,53,41,32,53,40,31,100,97,95,30.00,29.69,9,1,12,0.37
2013-1-30,62,57,51,55,51,48,98,81,70,29.68,28.97,14,2,19,0.09
2013-1-31,54,31,22,51,20,8,91,67,43,29.65,28.95,25,9,32,0.12